NIMIQ 5

Last updated on Sun Apr 27 2025 00:02:39 GMT+0000 (Coordinated Universal Time)

1 35873U 09050A 25115.69689584 -.00000254 00000+0 00000+0 0 9999 2 35873 0.0658 83.3230 0002669 317.5891 351.2250 1.00272497 57151
UTC large
Height (km)
Speed (km/s)
/
Latitude / Longitude
Inclination (degrees)
Orbital Period (minutes)
Azimuth
Elevation
Range (km)
Doppler Factor

Next 0 passes for location: London (51.5072 / 0.1276)

Sorry there are no passes over London.